Location: Mentone
(34.5413°N, 85.5351°W)
Time: 23:17:00
(UTC-05:00)

UOSAT-12 - Visible Passes

Search period start: 01 September 2014 00:00
Search period end: 11 September 2014 00:00
Orbit: 594 x 664 km, 64.6° (Epoch: 01 September)

Date Brightness Start Highest point End Pass type
(mag) Time Alt. Az. Time Alt. Az. Time Alt. Az.
01 Sep 9.7 03:49:02 11° SE 03:50:59 14° ESE 03:53:25 10° ENE visible
01 Sep 7.4 05:26:26 11° SW 05:30:38 51° WNW 05:35:13 10° NNE visible
02 Sep 8.5 04:09:48 28° SSE 04:11:13 34° ESE 04:15:25 10° NE visible
02 Sep 8.5 05:47:42 10° WSW 05:51:24 23° NW 05:55:10 10° N visible
03 Sep 7.1 04:30:28 51° SSW 04:31:37 85° ESE 04:36:18 10° NNE visible
04 Sep 9.7 03:13:40 16° E 03:13:40 16° E 03:15:33 10° ENE visible
04 Sep 7.7 04:51:02 34° W 04:52:13 41° NW 04:56:39 10° NNE visible
05 Sep 8.7 03:34:09 33° ENE 03:34:09 33° ENE 03:37:07 10° NE visible
05 Sep 8.7 05:11:31 17° WNW 05:13:02 19° NW 05:16:25 10° N visible
06 Sep 8.1 03:54:33 44° NNE 03:54:33 44° NNE 03:57:50 10° NNE visible
07 Sep 8.5 04:14:54 29° NNW 04:14:54 29° NNW 04:18:02 10° N visible
08 Sep 9.9 02:57:50 16° NE 02:57:50 16° NE 02:58:45 10° NE visible
08 Sep 9.1 04:35:11 16° NW 04:35:11 16° NW 04:37:35 10° N visible
09 Sep 9.6 03:18:04 18° NNE 03:18:04 18° NNE 03:19:19 10° NNE visible
10 Sep 9.6 03:38:15 16° N 03:38:15 16° N 03:39:23 10° N visible
